Location: Alpha Ridge Park
(39.3209°N, 76.9128°W)
Time: 00:50:51
(UTC-04:00)

Vanguard 2 Rocket - Pass Details

Date: 27 May 2019
Orbit: 554 x 3326 km, 32.9° (Epoch: 17 June)

Event Time Altitude Azimuth Distance (km) Brightness Sun altitude
Rises 12:39:03 0° 276° (W) 5,373 10.8 71.2°
Reaches altitude 10° 12:45:14 10° 255° (WSW) 3,689 10.2 71.5°
Maximum altitude 12:49:20 14° 228° (SW) 2,924 9.8 71.7°
Drops below altitude 10° 12:52:40 10° 199° (SSW) 2,831 9.8 71.8°
Sets 12:56:17 0° 172° (S) 3,379 10.1 71.9°
